Location: Canazei
(46.4667°N, 11.7667°E)
Time: 05:41:59
(UTC+00:00)

Resurs 1-4 Rocket - Pass Details

Date: 21 April 2021
Orbit: 799 x 815 km, 98.6° (Epoch: 15 May)

Event Time Altitude Azimuth Distance (km) Brightness Sun altitude
Rises 02:33:47 0° 360° (N) 3,326 5.9 -16.2°
Reaches altitude 10° 02:36:59 10° 340° (NNW) 2,388 4.8 -15.8°
Maximum altitude 02:40:04 16° 304° (WNW) 1,995 4.0 -15.3°
Enters shadow 02:42:11 13° 277° (W) 2,184 3.9 -15.0°
